www.pogodaiklimat.ru

Погода и климат >> Архив погоды >> Франция >> Аэропорт Ватри аэропорт


ПОГОДА в Париж Ватри аэропорту

  • Прогноз погоды в Париж Ватри аэропорту
  • Монитор погоды в Париж Ватри аэропорту

АРХИВ ПОГОДЫ в Париж Ватри аэропорту

Время (UTC), дата Ветер
(напр.,м/с)
 
Видим.   Явления Облачность Т
(С)
Тd
(С)
f
(%)
Тe
(С)
Тes
(С)
Комфортность P
(гПа)
Po
(гПа)
Тmin
(С)
Tmax
(С)
R
(мм)
R24
(мм)
S
(см)
04 12.06 ЮЗ 2 4800 м слаб. дождь 10/1 1470 м
[]
+11.0 +10.7 98 +9 +9 1010.1 990.2 0.6
05 12.06 ЮЗ 2 7000 м слаб. дождь 10/10 1500 м
[]
+11.0 +10.7 98 +10 +10 1010.0 990.1 0.6
06 12.06 Ю 2
{6}
11 км 10/10 1500 м
[]
+11.0 +10.7 98 +9 +9 1010.6 990.7 +10.6 +16.5 1
07 12.06 Ю 3 11 км слаб. дождь 10/3 240 м
[]
+11.1 +10.6 97 +9 +11 1010.9 991.0 0.2
08 12.06 ЮЗ 3 30 км 9/6 270 м
[]
+12.4 +11.1 92 +11 +13 1011.2 991.3 0.2
09 12.06 ЮЗ 3
{9}
25 км 8/8 300 м
[]
+14.2 +11.2 82 +13 +16 1010.7 991.0 0.4 0
10 12.06 Ю 4 19 км 9/9 800 м
[]
+16.5 +10.8 69 +16 +17 1010.8 991.2
11 12.06 ЮЗ 3 16 км 10/4 1020 м
[]
+16.2 +9.1 63 +16 +20 1010.8 991.2
12 12.06 ЮЗ 4
{11}
19 км 9/9 1000 м
[]
+15.4 +11.0 75 +15 +16 1010.9 991.3 0
13 12.06 ЮЗ 2 23 км 9/9 1140 м
[]
+16.9 +9.1 60 +17 +19 1010.4 990.9
14 12.06 ЮЗ 3 19 км н/о +17.9 +10.0 60 +18 +18 1010.4 990.9 0.0
15 12.06 Ю 3
{10}
17 км н/о +18.9 +9.7 55 +20 +20 1009.9 990.5 0.0 0
16 12.06 З 4 29 км 10/4 800 м
[]
+12.7 +10.9 89 +11 +13 1010.7 990.9 2
17 12.06 З 3 45 км 9/1 1140 м
[]
+14.4 +11.7 84 +14 +15 1011.0 991.3 0.2
18 12.06 Ю 2
{9}
45 км н/о +15.4 +11.6 78 +15 +15 1010.6 991.0 +11.1 +19.0 3 0
19 12.06 Ю 3-4
{7}
45 км 9/1 1320 м
[]
+13.6 +10.9 84 +13 +13 1011.0 991.2 0.0
20 12.06 Ю 3-4
{4}
35 км н/о +12.4 +9.9 85 +11 +11 1011.7 991.8
21 12.06 Ю 3-4
{4}
40 км н/о +11.4 +9.3 87 +10 +10 1012.3 992.3 0.0 0
22 12.06 Ю 2-3
{5}
18 км н/о +10.8 +9.1 89 +9 +9 1012.5 992.5
23 12.06 Ю 3 35 км 10/10
[]
+10.8 +9.4 91 +9 +9 1012.7 992.7
00 13.06 Ю 6
{8}
19 км 10/0
[]
+11.4 +9.8 90 +8 +8 1012.8 992.8 0
01 13.06 Ю 2 50 км н/о +10.2 +9.0 92 +9 +9 1013.2 993.1
02 13.06 ЮЗ 2-3
{4}
50 км н/о +9.3 +8.4 94 +7 +7 1013.4 993.3
03 13.06 Ю 3-4
{4}
40 км н/о +9.8 +8.9 94 +8 +8 1013.4 993.3 0
04 13.06 Ю 3-3
{4}
27 км н/о +8.9 +8.1 95 +7 +7 1013.8 993.6
05 13.06 Ю 2-3
{3}
13 км н/о +9.7 +8.9 95 +8 +8 1014.0 993.9
06 13.06 Ю 3
{9}
24 км н/о +11.7 +10.1 90 +10 +10 1014.2 994.2 +8.8 +15.5 0
07 13.06 Ю 3 27 км 10/6 330 м
[]
+12.8 +10.3 85 +11 +12 1014.3 994.4
08 13.06 Ю 3 30 км 9/8 450 м
[]
+14.5 +11.3 81 +14 +15 1014.2 994.4
09 13.06 Ю 4
{11}
24 км 9/9 600 м
[]
+15.9 +10.2 69 +15 +17 1014.0 994.3 0
10 13.06 ЮЗ 5 23 км 9/8 900 м
[]
+16.4 +10.3 67 +16 +17 1014.0 994.4
11 13.06 Ю 4 18 км н/о +18.0 +10.6 62 +18 +18 1013.3 993.8
12 13.06 Ю 3
{13}
17 км 10/10 1000 м
[]
+18.9 +10.7 59 +20 +24 1013.3 993.8 0
13 13.06 ЮЗ 4 27 км слаб. дождь 10/3 1230 м
[]
+17.5 +11.7 69 +17 +22 1013.5 994.0 0.0
14 13.06 ЮЗ 4 11 км 10/1 750 м
[]
+17.4 +11.9 70 +17 +22 1014.1 994.5 0.0
15 13.06 ЮЗ 2
{11}
28 км н/о +18.2 +12.2 68 +19 +19 1013.0 993.5 0.2 0
16 13.06 Ю 2 50 км 9/9
[]
+18.7 +11.0 61 +20 +21 1012.5 993.0
17 13.06 ЮЗ 2 35 км 9/9
[]
+18.3 +11.4 64 +19 +20 1012.2 992.7
18 13.06 Ю 1
{4}
55 км 8/0
[]
+18.7 +12.0 65 +20 +21 1012.3 992.9 +11.8 +19.4 0
19 13.06 С 1 50 км 9/9
[]
+18.3 +12.5 69 +20 +20 1012.5 993.0
20 13.06 С 1-1
{2}
50 км 10/10
[]
+16.5 +12.8 79 +18 +18 1013.0 993.4
21 13.06 СВ 1-2
{2}
50 км 9/0
[]
+15.9 +12.3 79 +17 +17 1013.6 993.9 0
22 13.06 В 2 50 км 9/9
[]
+15.6 +12.7 83 +16 +16 1013.6 993.9
23 13.06 В 2 40 км 8/8
[]
+14.7 +12.4 86 +14 +14 1013.3 993.6
00 14.06 В 2-2
{2}
55 км н/о +14.5 +10.7 78 +14 +14 1012.9 993.2 0
01 14.06 СВ 1 19 км н/о +12.3 +10.9 91 +12 +12 1012.7 992.8
02 14.06 СЗ 1 16 км 9/9
[]
+11.9 +11.0 94 +12 +12 1012.8 992.9
03 14.06 СЗ 2
{4}
11 км 10/0 2000 м
[]
+12.0 +11.4 96 +11 +11 1013.2 993.3 0
04 14.06 З 2 21 км 10/10
[]
+12.3 +11.2 93 +11 +11 1014.4 994.5
05 14.06 З 1-1
{3}
40 км 10/10
[]
+13.2 +11.4 89 +14 +14 1014.6 994.7
06 14.06 ЮВ 1
{3}
40 км 10/0
[]
+14.4 +12.8 90 +15 +15 1014.8 995.0 +11.1 +19.0 0
07 14.06 В 3 30 км 9/9 1500 м
[]
+15.4 +11.4 77 +15 +15 1013.5 993.8 0.0
08 14.06 Ю 1-2
{3}
30 км н/о +19.1 +12.1 64 +21 +21 комфорт 1014.7 995.2
09 14.06 Ю 2-3
{3}
19 км н/о +20.4 +12.4 60 +23 +23 комфорт 1015.0 995.6 0.0 0
10 14.06 ЮЗ 2-3
{4}
18 км н/о +21.6 +11.0 51 +23 +23 комфорт 1014.8 995.5
11 14.06 Ю 2-3
{4}
22 км н/о +22.7 +11.7 50 +25 +25 комфорт 1014.3 995.1
12 14.06 Ю 2-3
{4}
19 км н/о +23.3 +11.0 46 +26 +26 жарко 1013.6 994.4 0
13 14.06 В 2 26 км н/о +24.2 +11.2 44 +26 +26 жарко 1012.9 993.8
14 14.06 В 1 50 км н/о +23.8 +11.8 47 +25 +25 комфорт 1012.3 993.2
15 14.06 С 1-2
{3}
40 км н/о +24.6 +11.2 43 +26 +26 жарко 1011.9 992.8 0
16 14.06 ЮЗ 1 35 км 9/9 1500 м
[]
+23.1 +13.0 53 +26 +27 жарко 1011.0 991.9
17 14.06 ЮВ 2 50 км 8/8
[]
+20.4 +14.7 70 +24 +25 комфорт 1011.0 991.7
18 14.06 Ю 2
{6}
50 км 9/0
[]
+19.0 +15.3 79 +21 +21 комфорт 1011.8 992.4 +14.5 +24.7 0.2 0
19 14.06 Ю 2-3
{3}
24 км слаб. дождь 10/10
[]
+17.5 +14.9 85 +18 +18 1012.6 993.1 0.0
20 14.06 Ю 2 6000 м слаб. дождь 10/10 2000 м
[]
+16.2 +15.4 95 +16 +16 1012.8 993.2 2
21 14.06 В 1-2
{2}
9000 м слаб. дождь 10/0 2000 м
[]
+15.9 +15.1 95 +17 +17 1011.8 992.2 2
22 14.06 СЗ 1-1
{2}
5000 м слаб. дождь 10/10
[]
+15.7 +15.1 96 +17 +17 1011.4 991.8 0.4
23 14.06 Ю 1 2000 м дождь 10/3 120 м
[]
+15.4 +14.9 97 +16 +16 1012.3 992.7 2
00 15.06 ЮЗ 2
{4}
2300 м слаб. дождь 10/10 50 м
[]
+15.3 +14.8 97 +15 +15 1012.4 992.7 4 0
01 15.06 ЮЗ 2 6000 м слаб. дождь 10/10 120 м
[]
+15.3 +15.0 98 +15 +15 1012.5 992.8 0.2
02 15.06 ЮЗ 2 4500 м слаб. дождь 10/10 120 м
[]
+15.2 +14.9 98 +15 +15 1012.7 993.0 0.6
03 15.06 ЮЗ 2-3
{3}
5000 м 10/10 50 м
[]
+15.0 +14.7 98 +15 +15 1012.8 993.1 0.8 0
04 15.06 ЮЗ 2 8000 м 10/9 120 м
[]
+14.9 +14.6 98 +14 +14 1013.2 993.5
05 15.06 ЮЗ 3 5000 м 10/9 90 м
[]
+14.8 +14.5 98 +14 +14 1013.7 994.0
06 15.06 ЮЗ 3
{9}
14 км 10/10 100 м
[]
+15.1 +14.6 97 +14 +14 1014.6 994.9 +14.7 +19.0 0
07 15.06 ЮЗ 3-4
{5}
18 км 9/9 240 м
[]
+16.4 +15.1 92 +16 +16 1015.1 995.5
08 15.06 ЮЗ 3-4
{5}
17 км н/о +17.7 +15.7 88 +18 +18 1015.6 996.1
09 15.06 ЮЗ 3-5
{5}
18 км н/о +19.1 +14.6 75 +21 +21 комфорт 1016.3 996.8 0
10 15.06 ЮЗ 3 35 км н/о +20.1 +13.5 66 +23 +23 комфорт 1016.5 997.1
11 15.06 ЮЗ 3 35 км н/о +20.7 +13.6 64 +24 +24 комфорт 1016.6 997.2
12 15.06 ЮЗ 4
{10}
25 км 8/8 600 м
[]
+21.3 +14.2 64 +24 +31 комфорт 1016.8 997.5 0
13 15.06 З 4 30 км 8/1 1020 м
[]
+20.0 +12.7 63 +22 +29 комфорт 1017.0 997.6
14 15.06 З 3 30 км н/о +20.6 +10.4 52 +23 +23 комфорт 1017.1 997.7
15 15.06 З 3-5
{5}
40 км н/о +21.3 +10.7 51 +23 +23 комфорт 1017.1 997.7 0
16 15.06 ЮЗ 3 45 км н/о +20.6 +10.4 52 +23 +23 комфорт 1017.1 997.7
17 15.06 З 3 50 км 10/1 1200 м
[]
+19.1 +11.9 63 +20 +22 1017.4 997.9
18 15.06 ЮЗ 3
{8}
50 км н/о +20.2 +10.3 53 +22 +22 комфорт 1017.8 998.3 +15.1 +21.8 0
19 15.06 ЮЗ 2-3
{3}
55 км н/о +18.0 +11.8 67 +19 +19 1018.0 998.4
20 15.06 ЮЗ 2-3
{3}
55 км н/о +14.5 +11.6 83 +14 +14 1018.6 998.7
21 15.06 ЮЗ 2-2
{3}
40 км н/о +12.9 +11.0 88 +12 +12 1019.4 999.4 0
22 15.06 ЮЗ 2-2
{3}
40 км н/о +12.1 +10.2 88 +11 +11 1019.6 999.6
23 15.06 ЮЗ 2-2
{2}
30 км 10/10 2000 м
[]
+13.2 +11.8 91 +13 +13 1019.9 999.9
00 16.06 ЮЗ 2-2
{3}
30 км 9/0 2000 м
[]
+13.0 +11.4 90 +12 +12 1020.4 1000.4 0
01 16.06 Ю 1-2
{2}
30 км н/о +11.8 +10.5 92 +12 +12 1020.7 1000.6
02 16.06 ЮЗ 2-2
{2}
25 км н/о +10.7 +9.8 94 +10 +10 1021.0 1000.8
03 16.06 ЮЗ 2-2
{2}
25 км н/о +10.5 +9.6 94 +9 +9 1021.3 1001.1 0
04 16.06 ЮЗ 3-3
{3}
19 км н/о +10.7 +9.9 95 +9 +9 1021.6 1001.4
05 16.06 ЮЗ 2-3
{3}
18 км 10/10 2000 м
[]
+11.7 +11.1 96 +10 +10 1021.9 1001.8
06 16.06 ЮЗ 3
{8}
29 км 10/10 1500 м
[]
+13.4 +11.8 90 +12 +12 1022.1 1002.1 +10.1 +20.2 0
07 16.06 ЮЗ 3-5
{5}
27 км н/о +14.7 +12.0 84 +14 +14 1022.3 1002.4
08 16.06 ЮЗ 3 27 км н/о +16.8 +12.3 75 +17 +17 1022.3 1002.5
09 16.06 ЮЗ 3
{9}
35 км н/о +17.3 +12.6 74 +17 +17 1022.4 1002.7 0
10 16.06 ЮЗ 3 35 км н/о +18.7 +11.0 61 +20 +20 1022.3 1002.7
11 16.06 З 2 50 км 8/8 960 м
[]
+19.6 +11.6 60 +22 +25 комфорт 1022.3 1002.7
12 16.06 ЮЗ 2
{9}
40 км 9/9 1000 м
[]
+21.2 +12.1 56 +23 +25 комфорт 1022.0 1002.5 0
13 16.06 ЮЗ 2 45 км н/о +21.4 +11.7 54 +23 +23 комфорт 1021.8 1002.3
14 16.06 ЮЗ 2 19 км н/о +21.4 +11.7 54 +23 +23 комфорт 1021.8 1002.3
15 16.06 ЮЗ 3-4
{4}
35 км н/о +22.0 +11.1 50 +24 +24 комфорт 1021.3 1001.9 0
16 16.06 ЮЗ 3 55 км н/о +22.5 +11.9 51 +25 +25 комфорт 1021.0 1001.6
17 16.06 З 2-3
{4}
45 км н/о +21.9 +10.4 48 +24 +24 комфорт 1021.1 1001.7
18 16.06 ЮЗ 2
{5}
50 км н/о +21.4 +11.7 54 +23 +23 комфорт 1021.0 1001.6 +13.5 +22.7 0
19 16.06 З 1-2
{3}
60 км н/о +19.9 +11.9 60 +23 +23 комфорт 1021.0 1001.5
20 16.06 З 1-1
{1}
60 км н/о +18.2 +11.7 66 +20 +20 1021.3 1001.6
21 16.06 ЮЗ 1-1
{1}
60 км н/о +16.3 +12.5 78 +18 +18 1021.6 1001.8 0
22 16.06 СЗ 1-1
{1}
60 км н/о +16.5 +11.6 73 +17 +17 1021.6 1001.8
23 16.06 С 1-1
{1}
60 км н/о +14.8 +11.6 81 +16 +16 1021.3 1001.4
00 17.06 СВ 1-1
{1}
60 км н/о +14.7 +11.5 81 +16 +16 1021.5 1001.6 0
01 17.06 В 1-1
{2}
60 км н/о +14.7 +11.3 80 +16 +16 1021.3 1001.4
02 17.06 В 1-1
{1}
60 км н/о +13.4 +10.7 84 +14 +14 1021.2 1001.2
03 17.06 В 1-2
{2}
45 км н/о +12.7 +10.8 88 +13 +13 1020.9 1000.9 0
04 17.06 В 1-2
{2}
35 км н/о +11.9 +10.1 89 +12 +12 1020.9 1000.8
05 17.06 СВ 1-2
{2}
19 км н/о +12.2 +10.8 91 +12 +12 1020.7 1000.6
06 17.06 С 1
{3}
25 км н/о +14.2 +12.2 88 +14 +14 1020.6 1000.7 +11.8 +21.3 0
07 17.06 С 1-2
{2}
45 км н/о +17.5 +13.6 78 +19 +19 1020.3 1000.6
08 17.06 СВ 1-2
{2}
19 км н/о +20.9 +14.3 66 +25 +25 комфорт 1020.0 1000.6
09 17.06 СВ 1-3
{3}
45 км н/о +22.4 +11.8 51 +25 +25 комфорт 1019.5 1000.2 0
10 17.06 СВ 1-3
{3}
55 км н/о +23.8 +11.8 47 +25 +25 комфорт 1019.3 1000.1
11 17.06 СВ 2-4
{4}
55 км н/о +23.8 +10.8 44 +25 +25 комфорт 1018.7 999.5
12 17.06 СВ 2-4
{4}
60 км н/о +24.4 +12.0 46 +26 +26 жарко 1018.3 999.1 0
13 17.06 В 1-3
{4}
19 км н/о +25.5 +10.9 40 +27 +27 жарко 1017.9 998.8
14 17.06 С 1-4
{6}
17 км н/о +25.7 +10.3 38 +27 +27 жарко 1017.4 998.3
15 17.06 С 2-3
{4}
45 км н/о +25.7 +11.8 42 +27 +27 жарко 1017.1 998.0 0
16 17.06 СВ 3-2
{7}
29 км н/о +25.2 +11.7 43 +27 +27 жарко 1016.6 997.5
17 17.06 СВ 2-2
{3}
50 км н/о +25.1 +11.6 43 +27 +27 жарко 1016.3 997.2
18 17.06 СВ 1
{6}
55 км н/о +24.4 +13.0 49 +26 +26 жарко 1016.1 997.0 +14.3 +25.9 0
19 17.06 С 1-1
{2}
60 км н/о +22.6 +15.4 64 +27 +27 душно 1016.0 996.8
20 17.06 С 1-2
{2}
60 км н/о +21.0 +14.9 68 +25 +25 комфорт 1016.1 996.8
21 17.06 СВ 2-2
{3}
60 км н/о +19.7 +14.3 71 +22 +22 комфорт 1016.4 997.0 0
22 17.06 СВ 2-2
{3}
50 км н/о +18.2 +14.3 78 +19 +19 1016.5 997.0
23 17.06 С 2-2
{2}
15 км н/о +17.1 +14.2 83 +18 +18 1016.4 996.8
00 18.06 СВ 2-2
{2}
23 км н/о +16.5 +14.1 86 +17 +17 1016.1 996.5 0
01 18.06 СВ 2-2
{2}
30 км н/о +16.0 +14.0 88 +16 +16 1015.6 995.9
02 18.06 С 1-2
{2}
23 км н/о +14.9 +13.4 91 +15 +15 1015.4 995.7
03 18.06 С 2-2
{2}
35 км н/о +14.8 +13.3 91 +15 +15 1015.4 995.6 0
04 18.06 СВ 2-2
{2}
18 км н/о +14.8 +13.3 91 +15 +15 1015.3 995.5
05 18.06 СВ 1-2
{2}
29 км н/о +16.8 +14.3 85 +18 +18 1015.0 995.4
06 18.06 С 1
{2}
22 км н/о +16.2 +14.6 90 +17 +17 1015.1 995.5 +14.7 +24.4 0
07 18.06 В 1-2
{2}
26 км н/о +18.8 +14.5 76 +21 +21 комфорт 1014.8 995.3
08 18.06 ЮВ 1-1
{2}
35 км н/о +21.9 +15.3 66 +25 +25 комфорт 1014.5 995.2
09 18.06 ЮВ 1-1
{1}
35 км н/о +24.5 +15.7 58 +28 +28 душно 1014.0 994.9 0
10 18.06 СВ 1-1
{2}
35 км н/о +24.8 +17.0 62 +29 +29 душно 1013.8 994.8
11 18.06 ЮВ 1-2
{2}
19 км н/о +26.5 +14.3 47 +29 +29 жарко 1013.6 994.6
12 18.06 ЮВ 2-3
{3}
55 км н/о +26.5 +13.6 45 +29 +29 жарко 1013.1 994.2 0
13 18.06 ЮВ 2-3
{4}
50 км н/о +27.1 +13.1 42 +29 +29 жарко 1012.7 993.8
14 18.06 ЮВ 2 50 км 8/1 210 м
[]
+27.0 +12.6 41 +29 +37 жарко 1012.3 993.4
15 18.06 В 2-3
{3}
60 км н/о +26.9 +13.3 43 +29 +29 жарко 1011.6 992.7 0
16 18.06 В 2 45 км н/о +27.2 +12.8 41 +29 +29 жарко 1011.1 992.2
17 18.06 В 2-3
{4}
40 км н/о +27.2 +14.2 45 +29 +29 жарко 1010.7 991.8
18 18.06 СВ 2
{6}
50 км 8/0
[]
+26.3 +14.7 49 +29 +29 жарко 1010.4 991.5 +16.2 +27.5 0
19 18.06 В 2-3
{3}
55 км н/о +25.1 +15.4 55 +28 +28 жарко 1010.2 991.2
20 18.06 В 2-3
{3}
55 км н/о +23.1 +15.9 64 +28 +28 душно 1010.2 991.1
21 18.06 В 3
{6}
45 км 9/0
[]
+22.0 +16.3 70 +26 +26 душно 1010.0 990.8 0
22 18.06 ЮВ 3-3
{3}
40 км н/о +19.5 +16.7 84 +22 +22 комфорт 1009.8 990.5
23 18.06 ЮВ 3-3
{3}
30 км н/о +18.2 +16.0 87 +19 +19 1009.2 989.8
00 19.06 ЮВ 3-3
{3}
45 км н/о +18.0 +16.0 88 +18 +18 1008.6 989.2 0
01 19.06 ЮВ 3 35 км 9/9
[]
+18.7 +15.9 84 +20 +20 1007.9 988.6
02 19.06 ЮВ 3-4
{4}
35 км н/о +18.2 +15.1 82 +19 +19 1007.7 988.3
03 19.06 Ю 3-4
{4}
35 км н/о +17.5 +14.4 82 +17 +17 1007.7 988.3 0

 

Местоположение метеостанции Аэропорт Ватри аэропорт (Франция): широта 48.78 долгота 4.17 высота над уровнем моря 167 м.

В архиве по умолчанию представлена погода в Париж Ватри аэропорту за последнюю неделю. Архивные данные за месяц целиком и за предыдущие месяцы, начиная с января 2011 года, Вы можете получить, выбрав интересующий диапазон дат из раскрывающегося списка и нажав кнопку "Ввод!".


*Определитесь, кто Вы:
робот инопланетянин человек

Внимание! Время в таблицах - всемирное. Для получения местного времени необходимо прибавить поправку, которая равна 1 ч.

Смотрите также архив погоды в соседних городах и на ближайших метеорологических станциях:

Погода в Реймс аэропорту (Франция) (47 км)
Погода в Труа (Франция) (51 км)
Погода в Сен-Дизье (Франция) (56 км)
Погода на Базе ВВС Lanveoc Poulmic (Франция) (57 км)
Погода в Мелене (Франция) (111 км)
Погода в Осере (Франция) (115 км)
Погода в Чарвилле (Франция) (116 км)
Погода в Аэропорту Шарль де Голль (Франция) (123 км)
Погода в Ле-Бурже (Франция) (129 км)
Погода в Крее (Франция) (131 км)

Пояснения к столбцам:

Ветер - указаны скорость ветра в м/с - средняя за 10 мин, порывы в срок и между сроками (в фигурных скобках) и направление, откуда дует ветер: С - северный, СВ - северо-восточный, В - восточный, ЮВ - юго-восточный, Ю - южный, ЮЗ - юго-западный, З - западный, СЗ - северо-западный.
Видимость - горизонтальная дальность видимости в метрах или километрах. При видимости от 1 до 10 км при отсутствии осадков обычно наблюдается дымка, при ухудшении видимости до 1 км и менее - туман. В сухую погоду видимость может ухудшаться дымом, пылью или мглою.
Явления - указаны атмосферные явления, наблюдавшиеся в срок или в последний час перед сроком; фигурными скобками обозначены явления, наблюдавшиеся между сроками (за 1-3 часа до срока); квадратными скобками обозначены град или гололедные отложения с указанием их диаметра в мм.
Облачность - указаны через наклонную черту общая и нижняя облачность в баллах и высота нижней границы облаков в метрах; квадратными скобками обозначены формы облаков: Ci - перистые, Cs - перисто-слоистые, Cc - перисто-кучевые, Ac - высококучевые, As - высокослоистые, Sc - слоисто-кучевые, Ns - слоисто-дождевые, Cu - кучевые, Cb - кучево-дождевые. Подробнее классификацию облаков см. в Атласе облаков (PDF).
T - Температура воздуха - температура, измеренная на высоте 2 м над землей.
Td - Температура точки росы - температура, при понижении до которой содержащийся в воздухе водяной пар достигнет насыщения.
f - Относительная влажность воздуха - влажноcть воздуха, измеренная на высоте 2 м над землей.
Te - Эффективная температура - температура, которую ощущает одетый по сезону человек в тени. Характеристика душности погоды. При расчете учитывается влияние влажности воздуха и скорости ветра на теплоощущения человека.
Tes - Эффективная температура на солнце - температура, которую ощущает человек, с поправкой на солнечный нагрев. Характеристика знойности погоды. Зависит от высоты солнца над горизонтом, облачности и скорости ветра. Ночью, в пасмурную погоду, а также при ветре 12 м/с и более поправка равна нулю.
P - Атмосферное давление - приведенное к уровню моря атмосферное давление.
Po - Атмосферное давление - измеренное на уровне метеостанции атмосферное давление.
Tmin - Минимальная температура - минимум температуры воздуха на высоте 2 м над землей.
Tmax - Максимальная температура - максимум температуры воздуха на высоте 2 м над землей.
R - Количество осадков - Количество выпавших осадков за период времени, мм. При наведении курсора мыши на число - период времени, за который выпало указанное количество осадков.
R24 - Количество осадков - Количество выпавших осадков за 24 часа, мм.
S - Снежный покров - Высота снежного покрова, см. При наведении курсора мыши на число - состояние снежного покрова и степень покрытия местности в баллах.